This is the latest recevied weather packets stored in our database for station/object HB9ZRH-10. If no packets are shown the sender has not sent any weather packets the latest 10 day(s).
| Time | Temp. | Humidity | Pressure | Rain* | Wind** | Luminosity | Snow |
|---|---|---|---|---|---|---|---|
| 1777984219 | 23.33° C | 42% | 1008.6 hPa | - | - | - | - |
| 1777983919 | 22.78° C | 42% | 1008.7 hPa | - | - | - | - |
| 1777983619 | 23.33° C | 42% | 1008.7 hPa | - | - | - | - |
| 1777983319 | 22.78° C | 42% | 1008.8 hPa | - | - | - | - |
| 1777983019 | 22.22° C | 43% | 1008.8 hPa | - | - | - | - |
| 1777982719 | 22.78° C | 43% | 1008.8 hPa | - | - | - | - |
| 1777982419 | 22.78° C | 42% | 1008.8 hPa | - | - | - | - |
| 1777982119 | 22.78° C | 42% | 1008.9 hPa | - | - | - | - |
| 1777981819 | 22.78° C | 42% | 1008.8 hPa | - | - | - | - |
| 1777981519 | 23.33° C | 42% | 1008.8 hPa | - | - | - | - |
| 1777981219 | 22.78° C | 43% | 1008.8 hPa | - | - | - | - |
| 1777980919 | 22.22° C | 43% | 1008.8 hPa | - | - | - | - |
| 1777980619 | 22.22° C | 43% | 1008.8 hPa | - | - | - | - |
| 1777980319 | 21.11° C | 44% | 1008.8 hPa | - | - | - | - |
| 1777980019 | 21.11° C | 44% | 1008.8 hPa | - | - | - | - |
| 1777979719 | 21.11° C | 44% | 1008.8 hPa | - | - | - | - |
| 1777979419 | 20° C | 44% | 1008.9 hPa | - | - | - | - |
| 1777979119 | 21.11° C | 44% | 1008.8 hPa | - | - | - | - |
| 1777978819 | 20.56° C | 44% | 1008.8 hPa | - | - | - | - |
| 1777978519 | 21.11° C | 43% | 1009 hPa | - | - | - | - |
| 1777978219 | 22.78° C | 42% | 1009 hPa | - | - | - | - |
| 1777977919 | 21.67° C | 43% | 1009 hPa | - | - | - | - |
| 1777977619 | 21.67° C | 43% | 1009 hPa | - | - | - | - |
| 1777977319 | 18.89° C | 45% | 1009 hPa | - | - | - | - |
| 1777977019 | 20° C | 44% | 1008.8 hPa | - | - | - | - |
* Rain since midnight (hover to see other rain measurements)
** Current wind speed in m/s (hover to see current wind gust speed)